Regional Weather Roundup
Issued by NWS Grand Forks, ND

Home | Current Version | Previous Version | Graphics & Text | Print | Product List | Glossary On
Versions: 1 2 3 4 5 6 7 8 9 10 11 12 13 14 15 16 17 18 19 20 21 22 23 24 25 26 27 28 29 30 31 32 33 34 35 36 37 38 39 40 41 42 43 44 45 46 47 48 49 50
000
ASUS43 KFGF 030131
RWRFGF
PRAIRIE TO PINES  WEATHER ROUNDUP
NATIONAL WEATHER SERVICE EASTERN NORTH DAKOTA/GRAND FORKS ND
800 PM CDT TUE JUN 02 2015

 **SATELLITE DATA USED TO AUGMENT SKY COVER AT AUTOMATED STATIONS**
 *****  WEATHER ACROSS EASTERN NORTH DAKOTA  *****

CITY           SKY/WX    TMP DP  RH WIND       PRES   REMARKS
GRAND FORKS    CLOUDY    66  62  87 N10       29.75S
GRAND FRKS AFB CLOUDY    63  61  94 NE13      29.76S
GRAND FRKS NWS   N/A     63 N/A N/A N6          N/A
DEVILS LAKE    CLOUDY    61  55  82 NE17      29.76F
FARGO          LGT RAIN  78  63  59 SE13      29.69F
WAHPETON ARPT  CLOUDY    77  59  53 S12G18    29.72S
$$

 ***** WEATHER ACROSS CENTRAL AND WESTERN NORTH DAKOTA  *****

CITY           SKY/WX    TMP DP  RH WIND       PRES   REMARKS
BISMARCK       PTSUNNY   74  66  76 E7        29.73S
MINOT          CLOUDY    61  57  87 E16G26    29.75F
JAMESTOWN      TSTM      73  64  73 E8        29.69S
MINOT AFB      CLOUDY    60  60 100 E16G24    29.75F
GARRISON         N/A     67  61  81 E14       29.73F
WILLISTON      LGT RAIN  57  54  89 NE13      29.86R FOG
DICKINSON      PTSUNNY   60  52  74 W22       29.80R
HETTINGER      SUNNY     70  55  59 NW15      29.81R
$$

 *****  OTHER AIRPORT OBSERVATIONS IN OUR AREA  *****

CITY           SKY/WX    TMP DP  RH WIND       PRES   REMARKS
WALHALLA       FAIR      61  61 100 MISG      29.81F
GRAFTON AIRPOR DRIZZLE   61  61 100 N10       29.78F
VALLEY CITY AR MOCLDY    73  66  78 E6        29.71R
CANDO          CLOUDY    59  59 100 NE13      29.81R
CAVALIER APRT  CLOUDY    63  63 100 NE6       29.80F
GWINNER        NOT AVBL
SHEYENNE NWR     N/A     78  64  61 SE7       29.95S
ROLLA          CLOUDY    55  55 100 NE14      29.84S
 ***** THE ABOVE OBSERVATIONS ARE NON NWS ARE NOT QUALITY
       CONTROLLED AND MAY MIS-REPORT RAIN FOR SNOW...
$$

  *****  WEATHER ACROSS NORTHERN MINNESOTA  *****

CITY           SKY/WX    TMP DP  RH WIND       PRES   REMARKS
FLAG ISLAND    LGT RAIN  57  57 100 SE5       29.82R
WARROAD        RAIN      59  55  88 SE6       29.84S
ROSEAU         HVY RAIN  61  55  82 E6        29.82F
HALLOCK        CLOUDY    61  61 100 E7        29.79F
THF RVR FALLS  CLOUDY    66  59  77 E7        29.78F
BAUDETTE       CLOUDY    60  59  96 NE3       29.83F
WASKISH        CLOUDY    64  59  82 CALM      29.82F
CROOKSTON      PTSUNNY   68  61  77 E7        29.75S
STEPHEN NDAWN    N/A     61  61 100 NE7         N/A
GREENBUSH NDAW   N/A     61  61 100 E8          N/A
$$
  *****  WEATHER ACROSS CENTRAL AND WEST MINNESOTA  *****

CITY           SKY/WX    TMP DP  RH WIND       PRES   REMARKS
FOSSTON        CLOUDY    68  61  77 SE8       29.78S
BEMIDJI        PTCLDY    67  53  59 SE9       29.81F
PARK RAPIDS    MOCLDY    70  53  54 SE13      29.81F
ELBOW LAKE     CLOUDY    75  59  57 S18       29.76F
WADENA         CLOUDY    73  54  49 SE12      29.81S
DETROIT LAKES  MOCLDY    72  55  56 SE10      29.78F
MOORHEAD       PTSUNNY   77  63  61 SE12      29.71F
FERGUS FALLS   MOCLDY    77  61  57 S14       29.75S
MORRIS MN      CLOUDY    79  57  47 S18       29.76S
STAPLES        CLOUDY    73  48  40 S10       29.82F
$$
  *****  WEATHER ELSEWHERE ACROSS MINNESOTA  *****

CITY           SKY/WX    TMP DP  RH WIND       PRES   REMARKS
DULUTH         CLOUDY    57  41  55 SE7       29.94R
INTRNTL FALLS  TSTM      60  57  89 CALM      29.86R FOG
ELY            CLOUDY    70  46  43 S7        29.90S
CLOQUET        CLOUDY    57  43  58 E6        29.93S
WHEATON        MOCLDY    77  61  57 S13       29.75S
BRAINERD       CLOUDY    68  54  60 SE9       29.86F
HIBBING        LGT RAIN  69  53  56 S7        29.90R
ALEXANDRIA     PTCLDY    75  56  51 S14       29.82F
SAINT CLOUD    CLEAR     73  52  47 SE14      29.86S
MINNEAPOLIS    MOCLDY    74  52  46 SE14      29.90F
$$

  *****  WEATHER ACROSS SOUTH DAKOTA  *****

CITY           SKY/WX    TMP DP  RH WIND       PRES   REMARKS
SIOUX FALLS    PTCLDY    76  61  59 S16G26    29.81F
BROOKINGS      CLEAR     75  61  60 S17       29.81R
WATERTOWN      PTCLDY    77  60  55 S15       29.75F
HURON          PTSUNNY   81  62  52 S20G25    29.72R
SISSETON         N/A     80  62  54 S16       29.71F
ABERDEEN       MOSUNNY   84  64  50 S14       29.66S
MITCHELL       MOSUNNY   80  62  54 S17G24    29.75S
PIERRE         PTSUNNY   78  63  59 NW8       29.70S
MOBRIDGE       MOSUNNY   83  67  58 N6        29.70R
RAPID CITY     CLOUDY    66  59  78 N7        29.84F
$$

  *****  SOME WEATHER IN NEARBY STATES *****

CITY           SKY/WX    TMP DP  RH WIND       PRES   REMARKS
GLASGOW MT     MOSUNNY   61  50  67 NE10      29.88F
GREAT FALLS MT CLOUDY    58  51  78 NE6       29.93R THUNDER
CHEYENNE WY    MOSUNNY   74  50  42 NE7       29.94S
SCOTTSBLUFF NE MOSUNNY   73  49  42 NE21G35   29.82R
OMAHA NE       MOCLDY    71  60  68 SE21G28   29.91S
DES MOINES IA  MOCLDY    69  55  60 S12       29.97S
DAVENPORT IA   MOCLDY    70  48  45 S8        30.04S
CHICAGO IL     MOCLDY    62  46  55 E9        30.08S
EAU CLAIRE WI  PTCLDY    69  49  48 S13G18    29.98S
LA CROSSE WI   PTCLDY    72  50  45 S10       29.99F
$$

  *****  SOME NATIONAL WEATHER *****

CITY           SKY/WX    TMP DP  RH WIND       PRES   REMARKS
LA GUARDIA NY  LGT RAIN  54  50  86 E9        30.15F
RALEIGH NC     LGT RAIN  72  66  81 S6        29.99R
ATLANTA GA     MOCLDY    76  61  59 CALM      29.94S THUNDER
NEW ORLEANS LA PTCLDY    84  58  40 N5        29.91S
OKLAHOMA CITY  MOCLDY    81  65  58 S16       29.90S
ALBUQUERQUE NM MOSUNNY   88  20   8 SW6       29.98S
SALT LAKE CITY MOSUNNY   79  44  28 N8        29.90F
LOS ANGELES CA MOSUNNY   65  58  78 W12       29.93F
BOISE ID       MOSUNNY   71  39  31 NW6       29.92F
SEATTLE WA     CLOUDY    59  51  75 SW12      30.05R
$$

*** WEATHER ACROSS MANITOBA...SASKATCHEWAN AND ONTARIO ***
                ***ONTARIO***

CITY           SKY/WX    TMP DP  RH WIND       PRES   REMARKS
GERALDTON      MOCLDY    57  36  44 S10G20    29.97S
THUNDER BAY    CLOUDY    54  39  58 E7        29.98S
SIOUX LOOKOUT  LGT RAIN  55  54  94 S3        29.88S
TORONTO        CLEAR     57  43  58 SE7       30.19R
BIG TROUT LK   CLEAR     61  36  39 NW12      29.78R
PICKLE LAKE    MOCLDY    64  50  59 SW10      29.83S
DRYDEN         LGT RAIN  57  55  94 SE3       29.87S FOG
KENORA         LGT RAIN  57  57 100 SE5       29.85S FOG
$$
                *** MANITOBA***

CITY           SKY/WX    TMP DP  RH WIND       PRES   REMARKS
BRANDON        CLOUDY    61  41  48 NE18      29.86F
DAUPHIN        MOSUNNY   61  30  31 NE10      29.92S
ISLAND LAKE    MOSUNNY   59  32  36 NW6       29.85R
PILOT MOUND      N/A     59  50  72 NE12        N/A
THE PAS        MOSUNNY   61  27  27 N8        29.94R
THOMPSON       MOSUNNY   54  30  40 NW13G23   29.89R
WINNIPEG       CLOUDY    61  36  39 NE15G22   29.86R
LYNN LAKE      SUNNY     54  27  35 NW18G26   29.93R
CHURCHILL      LGT RAIN  39  36  87 W23G31    29.61R
GILLAM         PTSUNNY   46  36  66 W14G26    29.81S
$$
                ***SASKATCHEWAN***

CITY           SKY/WX    TMP DP  RH WIND       PRES   REMARKS
ESTEVAN        LGT RAIN  55  52  88 NE13      29.89S
KINDERSLEY     CLOUDY    63  32  31 E12       29.97S
LLOYDMINSTER   PTSUNNY   59  34  38 E12       29.99S
PRINCE ALBERT  PTSUNNY   64  30  27 NE6       29.97
REGINA         CLOUDY    63  34  34 NE8       29.93S
YORKTON        SUNNY     64  28  25 NE9       29.91S
N. BATTLEFORD  CLOUDY    61  32  33 NE5       30.01S
LA RONGE       MOSUNNY   63  25  23 NW8       29.98S
SASKATOON      PTSUNNY   63  30  29 E8        30.00R
SWIFT CURRENT  SUNNY     59  36  41 NE10      29.95S
$$
NOTE: THESE ARE AUTOMATED STATIONS WITH LIMITED QUALITY CONTROL
      "FAIR" INDICATES FEW OR NO CLOUDS BELOW 12,000 FEET WITH NO
      SIGNIFICANT WEATHER AND/OR OBSTRUCTIONS TO VISIBILITY.
      SKY/WX - SKY CONDITION AND SIGNIFICANT WEATHER.
      TMP - AIR TEMPERATURE.    DP   - DEWPOINT TEMPERATURE.
      RH  - RELATIVE HUMIDITY.  PRES - PRESSURE.
      HX  - HEAT INDEX.         WCI  - WIND CHILL INDEX.
$


USA.gov is the U.S. government's official web portal to all federal, state and local government web resources and services.